Regional Weather Roundup
Issued by NWS

Home | Current Version | Previous Version | Graphics & Text | Print | Product List | Glossary On
Versions: 1 2 3 4 5 6 7 8 9 10 11 12 13 14 15 16 17 18 19 20 21 22 23 24 25 26 27 28 29 30 31 32 33 34 35 36 37 38 39 40 41 42 43 44 45 46 47 48 49 50
000
ASUS43 KIND 251009
RWRIN

WEATHER ROUNDUP FOR INDIANA
NATIONAL WEATHER SERVICE INDIANAPOLIS IN
500 AM EST SUN JAN 25 2015

NOTE: "FAIR" INDICATES FEW OR NO CLOUDS BELOW 12,000 FEET WITH NO
SIGNIFICANT WEATHER AND/OR OBSTRUCTIONS TO VISIBILITY.

* - STATION DOES NOT REPORT WEATHER SUCH AS PRECIPITATION OR FOG.

+ - STATION NOT QUALITY CONTROLLED BY THE NATIONAL WEATHER SERVICE.
    USE DATA WITH CAUTION...ESPECIALLY DEWPOINT AND RELATIVE
    HUMIDITY OBSERVATIONS.

INZ001>003-010>013-019-020-251100-
NORTHWEST INDIANA

CITY           SKY/WX    TMP DP  RH WIND       PRES   REMARKS
KNOX *+        CLOUDY    32  28  84 E3        29.66F
LA PORTE +     CLOUDY    35  35 100 NE3       29.68S FOG
MICHIGAN CITY+ CLOUDY    32  32 100 NE3       29.69S FOG
MONTICELLO +   MOCLDY    32  32  99 SE3       29.66S FOG
RENSSELAER +   CLOUDY    32  32 100 E3        29.66S FOG
VALPARAISO     FOG       33  32  96 E5        29.67S VSB 3/4 WCI  29

$$

LMZ046-743>745-251100-
SOUTHERN LAKE MICHIGAN

STATION/POSITION TIME  TEMP WIND        PRES
                       AIR  DIR/SP/G
                 (UTC) (F)  (DEG/KT/KT) (MB)
MICHIGAN CITY    1000   33   30/  9/ 10   N/A

$$

INZ004-005-014>016-021>024-251100-
NORTH CENTRAL INDIANA

CITY           SKY/WX    TMP DP  RH WIND       PRES   REMARKS
GOSHEN         CLOUDY    34  33  96 N5        29.68S FOG     WCI  30
LOGANSPORT +   CLOUDY    32  32 100 E6        29.68S FOG     WCI  26
PERU/GRISSOM   CLOUDY    32  31  95 E6        29.66F WCI  26
ROCHESTER +    CLOUDY    34  34 100 E3        29.68S FOG
SOUTH BEND     CLOUDY    35  32  88 NE5       29.69S FOG     WCI  31
WARSAW +       CLOUDY    32  32 100 CALM      29.68S FOG

$$

INZ006>009-017-018-025>027-251100-
NORTHEAST INDIANA

CITY           SKY/WX    TMP DP  RH WIND       PRES   REMARKS
ANGOLA *+      CLOUDY    34  25  69 CALM      29.68S
AUBURN +       CLOUDY    34  32  93 CALM      29.70R FOG
FORT WAYNE     CLOUDY    33  31  92 S3        29.70S
HUNTINGTON +   CLOUDY    32  28  86 S3        29.69S

$$

INZ028-029-035-036-043>045-051>053-251100-
WEST CENTRAL INDIANA

CITY           SKY/WX    TMP DP  RH WIND       PRES   REMARKS
GREENCASTLE +  CLOUDY    34  28  80 S5        29.67F WCI  30
LAFAYETTE      MOCLDY    31  30  96 NE3       29.66S
TERRE HAUTE    CLOUDY    35  30  82 SE5       29.67F WCI  31

$$

INZ030>032-037>040-046>048-054>057-064-065-251100-
CENTRAL INDIANA

CITY           SKY/WX    TMP DP  RH WIND       PRES   REMARKS
CP ATTERBURY + CLOUDY    34  30  86 SE5       29.70F WCI  30
INDIANAPOLIS   CLOUDY    32  29  88 SE5       29.67F WCI  27
-EAGLE CREEK   CLOUDY    33  30  88 SE3       29.67F
KOKOMO *+      CLOUDY    32  30  93 E5        29.68S WCI  27
MARION +       CLOUDY    32  31  96 SE3       29.69S
MT COMFORT *+  CLOUDY    34  30  86 S6        29.69F WCI  29
SHELBYVILLE    CLOUDY    37  30  75 S9        29.69F
ZIONSVILLE +   CLOUDY    34  30  85 S5        29.67F WCI  30

$$

INZ033-034-041-042-049-050-058-059-251100-
EAST CENTRAL INDIANA

CITY           SKY/WX    TMP DP  RH WIND       PRES   REMARKS
MUNCIE         CLOUDY    35  30  82 S6        29.68F WCI  30

$$

INZ060-061-067>069-081>083-085>088-251100-
SOUTHWEST INDIANA

CITY           SKY/WX    TMP DP  RH WIND       PRES   REMARKS
EVANSVILLE     CLOUDY    44  31  60 SW8       29.71F
HUNTINGBURG *+ CLOUDY    37  30  75 S7        29.71F
WASHINGTON +   CLOUDY    39  30  70 S7        29.68F

$$

INZ062-063-066-070>080-084-089>092-251100-
SOUTH CENTRAL AND SOUTHEAST INDIANA

CITY           SKY/WX    TMP DP  RH WIND       PRES   REMARKS
BLOOMINGTON    CLOUDY    35  30  82 S5        29.68F WCI  31

$$



USA.gov is the U.S. government's official web portal to all federal, state and local government web resources and services.